sat.trackr.live / text

‹ back to catalog

STARLINK-36620

NORAD 67654 · 2026-022G

PAYLOAD ACTIVE UNKNOWN

§ Identity

Operator
Country
US
Launch date
2026-02-02
Launch site
AFWTR
Launch vehicle
Mass (kg)
RCS (m²)

Purposes: comms

External: N2YO · Heavens-Above · Gunter

§ Orbital elements

Epoch: 2026-09-19T01:11:03.249024Z

Period
93.91 min
Inclination
97.2860°
Eccentricity
0.0001217
Mean motion
15.33444560 rev/d
Perigee alt
464.7 km
Apogee alt
466.4 km
Semi-major
6,843.7 km
B*
4.2073e-4
RAAN
293.6147°
Arg perigee
89.1153°
Mean anomaly
271.0229°
Rev number
3,520

§ Raw data

STARLINK-366201 67654U 26022G   26262.04934316  .00013532  00000+0  42073-3 0  99902 67654  97.2860 293.6147 0001217  89.1153 271.0229 15.33444560 35200

JSON: /api/v1/satellites/67654 · /tle

For live sub-satellite position, see the globe view (requires WebGL).

§ Visibility from observer

Set your observer location to see the next 7 days of passes ≥ 10°. The values pass through the URL so the page stays shareable.

No JS? Fill the form by hand. The geolocation button needs JavaScript.